Temp
18 19 19 19 19 19 19 19 19 19 19 19 20 20 20 20 21 21 21 21 21 21 21 22 22 22 22 23 23 23 23 23 22 22 22 24 25 25 25 25 25 24 23 23 23 23 24 24 25 25 24 24 24 25 24 24 25 24 24 23 22 24 25 27 28 28 28 28 28 28 28 28 27 27 27 26 26 26 26 27 27 28 28 28 28 28 26 24
18 18 18 18 19 19 19 19 19 19 19 19 20 20 20 20 20 21 21 21 21 21 21 22 22 22 22 22 23 23 23 23 22 22 23 24 25 25 25 25 24 24 23 23 23 24 25 25 25 25 24 24 24 24 24 24 24 24 24 23 23 25 27 28 29 29 29 28 28 28 28 28 27 27 27 26 26 26 26 26 27 28 28 29 28 28 26 23
18 17 17 18 18 19 19 19 19 19 19 19 20 20 20 20 20 21 21 21 21 21 21 21 22 22 22 22 22 23 22 22 22 24 25 25 25 25 25 25 24 24 24 24 24 25 25 26 26 25 25 24 25 24 23 24 24 24 24 23 24 26 27 28 29 29 29 28 27 27 27 27 27 27 27 26 26 26 26 26 27 27 28 29 29 28 25 24
18 17 17 18 19 19 19 19 19 19 19 19 20 20 19 20 20 20 21 21 21 21 21 21 21 21 22 22 22 23 22 21 24 25 26 25 25 25 25 25 25 24 24 24 24 25 25 26 26 26 25 24 25 25 24 24 24 25 24 23 25 27 27 27 28 28 28 27 26 26 26 26 26 27 27 26 25 25 26 26 27 27 28 29 29 29 26 25
17 17 17 18 19 19 19 19 19 19 19 19 19 19 19 19 20 20 20 20 21 21 21 21 21 21 21 21 22 23 22 23 25 26 25 25 25 25 25 25 24 24 23 23 24 25 25 25 26 25 25 24 25 25 25 25 25 25 25 25 26 26 26 27 28 27 27 26 26 26 25 26 26 27 26 26 24 24 26 27 27 28 28 28 28 28 27 27
17 16 17 18 18 18 18 18 19 18 18 18 18 18 19 19 19 20 20 20 20 20 20 20 20 20 20 21 22 22 22 24 26 26 25 25 25 25 25 24 24 23 23 23 24 24 24 25 25 25 24 24 24 25 26 27 26 24 24 26 26 26 26 27 28 27 26 26 25 25 25 26 25 25 26 26 25 25 27 27 27 27 27 27 27 27 27 28
16 15 16 18 18 17 17 18 18 18 17 18 18 18 18 19 19 19 20 20 20 20 20 20 20 20 20 21 21 21 22 24 26 25 25 25 24 24 24 24 24 23 22 23 24 24 24 25 25 24 24 24 25 26 26 27 27 25 24 25 26 26 26 26 27 27 26 25 25 25 25 25 24 24 25 25 26 26 27 27 27 27 27 27 27 27 27 27
16 16 16 17 17 16 16 17 17 17 17 17 17 18 18 18 19 19 20 20 20 20 20 20 20 19 20 20 20 21 22 24 25 25 25 25 24 24 24 24 23 22 22 23 24 25 25 25 25 25 25 25 25 26 26 26 26 25 25 25 25 26 26 26 26 26 26 25 25 25 24 24 24 25 25 25 26 26 27 27 27 27 27 27 27 27 27 27
15 15 15 16 16 16 16 17 17 17 17 17 17 17 18 18 19 19 19 20 20 20 20 20 19 19 20 19 20 21 23 24 24 24 24 24 24 23 23 23 23 22 22 23 24 25 25 25 25 25 24 25 25 25 25 25 24 25 25 25 25 25 25 25 25 25 25 25 25 25 23 24 25 25 25 25 26 27 27 27 27 27 27 27 27 28 28 28
14 15 14 15 15 16 16 16 16 16 16 17 17 17 18 18 19 19 19 19 20 20 20 19 19 19 19 19 20 21 22 24 23 23 24 24 23 23 22 22 22 22 22 23 24 25 25 25 25 24 24 24 25 24 25 24 25 25 24 24 24 24 24 24 24 24 25 25 25 25 24 24 25 25 24 25 27 27 27 27 27 28 27 28 28 28 28 28
13 14 14 14 15 15 15 16 16 16 16 16 17 17 18 18 19 19 19 20 20 20 20 19 19 19 18 19 20 22 23 23 23 23 23 23 22 22 22 22 22 22 22 24 25 25 25 25 25 24 24 24 24 24 25 24 25 24 23 23 23 23 24 24 24 25 25 25 25 25 24 25 25 24 24 25 26 27 27 27 27 28 27 28 28 28 28 28
13 13 14 14 14 15 15 15 15 15 16 16 16 17 17 18 19 19 19 20 20 20 20 19 19 18 18 18 20 22 23 23 23 23 22 22 21 21 21 21 21 22 22 23 24 24 24 23 23 23 24 23 23 24 23 23 24 23 22 22 22 23 23 24 25 25 25 25 26 25 23 23 24 24 24 25 26 26 27 27 27 27 27 27 27 27 28 27
13 13 14 14 14 14 14 15 15 15 16 16 16 17 18 18 19 19 20 20 20 20 20 19 19 18 17 19 21 22 23 23 23 22 21 21 21 21 21 21 21 21 22 22 22 22 22 22 22 23 23 23 23 23 22 22 23 23 22 22 22 22 23 25 26 26 26 25 25 24 22 22 25 25 26 27 27 27 27 27 27 27 27 27 27 27 27 27
13 13 14 14 14 14 14 15 15 15 16 16 16 17 18 18 19 19 19 20 19 19 19 19 18 17 17 20 22 22 22 22 22 21 20 20 20 20 20 21 21 21 21 21 21 21 21 22 22 22 23 23 23 23 22 22 23 22 22 22 22 21 22 25 26 27 26 24 24 24 21 22 25 26 27 28 28 27 27 27 27 27 27 27 27 27 27 27
12 13 14 14 14 14 15 15 15 15 16 16 16 17 17 18 18 19 19 19 19 19 19 18 17 17 18 21 22 21 22 22 21 20 20 20 20 20 20 20 20 20 20 20 20 20 21 21 21 21 22 23 23 22 21 22 23 23 22 21 22 21 22 25 26 27 26 23 23 24 21 22 24 26 27 28 27 27 26 26 26 26 26 26 26 27 26 27
12 13 13 14 14 14 15 15 15 15 16 16 16 17 17 17 18 18 19 19 18 18 17 17 17 17 19 21 21 21 21 21 20 19 19 20 20 20 20 19 20 20 20 20 20 20 21 21 21 21 21 22 22 21 21 21 21 23 22 20 21 21 22 24 26 27 26 23 23 23 22 23 24 26 27 27 26 26 25 25 26 25 26 26 26 26 27 27
13 13 13 14 14 14 15 15 15 15 16 16 16 17 17 17 17 17 18 17 17 17 16 17 18 18 20 21 21 21 21 20 19 19 19 19 20 20 20 20 20 20 20 20 20 20 21 21 21 21 21 21 21 21 20 19 20 22 22 21 22 22 22 23 25 27 26 24 24 23 22 22 24 25 25 26 26 25 25 25 25 25 26 26 26 26 26 25
13 13 14 14 14 14 15 15 15 15 16 16 16 17 16 16 16 17 16 16 16 16 16 17 18 19 20 21 21 21 20 19 19 19 19 19 19 20 20 21 21 20 20 20 20 20 20 21 21 21 21 21 21 21 20 20 20 21 21 21 21 22 23 22 23 25 26 25 24 24 23 23 24 25 25 26 26 25 25 25 25 25 26 26 26 26 24 21
13 14 14 14 14 14 14 15 15 15 16 17 17 16 16 16 16 16 16 16 17 18 19 19 19 20 22 22 22 20 19 19 19 18 19 19 19 20 20 21 21 20 20 20 20 20 20 20 20 19 20 21 21 21 20 21 22 22 22 21 21 21 22 23 24 25 25 24 24 24 23 24 24 24 25 25 25 25 25 25 25 25 25 25 24 23 21 19
13 13 13 14 13 14 14 14 15 16 16 17 16 16 16 17 17 18 17 17 18 20 22 21 21 22 22 22 21 19 18 19 18 18 18 18 19 19 20 20 20 20 20 20 20 20 20 19 19 19 19 21 22 23 23 23 23 23 22 22 21 21 21 23 24 25 26 24 23 24 23 23 23 24 24 24 25 25 24 25 25 25 24 23 23 21 19 18
12 13 13 14 13 14 14 14 15 15 16 17 16 17 18 17 18 18 16 18 20 21 21 22 22 22 23 22 20 19 19 19 19 18 18 19 19 19 20 20 19 19 20 21 20 20 20 19 19 20 21 22 23 23 24 24 23 23 22 21 21 21 21 23 24 24 25 23 22 23 23 22 23 23 23 24 24 24 24 25 25 24 23 22 21 20 17 16
12 13 13 13 14 14 14 14 15 15 16 16 17 18 17 15 16 16 15 17 19 20 20 21 22 22 23 22 20 19 20 19 19 18 17 19 19 19 20 20 19 19 20 21 20 19 19 18 19 21 22 22 22 23 23 23 23 22 21 21 20 21 21 22 23 24 24 22 22 23 22 22 23 23 23 23 23 24 25 25 23 21 19 18 18 17 16 15
13 13 13 13 14 14 14 14 14 15 15 16 17 17 16 15 15 14 14 15 17 19 20 20 21 21 22 21 19 19 19 19 20 18 18 18 18 19 20 20 20 20 21 21 20 19 18 19 21 22 22 22 22 22 23 22 22 21 21 20 20 21 21 21 22 23 23 22 21 22 21 21 22 22 23 24 24 25 25 22 20 19 17 16 16 15 14 13
13 13 13 14 14 14 14 14 14 15 15 15 15 15 14 14 14 14 14 16 18 19 19 18 19 20 20 19 18 18 19 19 20 18 18 19 19 19 19 20 20 20 21 21 21 20 19 21 23 22 22 22 22 22 22 21 21 21 21 20 20 21 21 21 21 21 21 21 21 21 20 21 22 23 24 25 26 25 22 20 18 17 16 15 15 14 13 12
13 13 13 14 13 13 13 13 14 15 15 15 15 14 14 14 14 14 14 16 18 18 17 17 18 18 18 18 17 18 19 19 19 18 18 18 19 19 19 21 20 20 20 21 21 20 20 22 22 22 22 22 21 21 21 21 20 20 21 21 20 21 21 20 20 20 19 20 21 21 19 19 22 23 23 25 25 22 19 18 17 16 15 14 13 13 12 12
13 13 13 13 13 13 13 14 14 15 15 15 14 14 14 14 14 14 14 16 18 18 18 17 18 18 18 18 17 18 19 18 17 17 18 17 18 19 19 20 20 19 20 21 20 20 21 21 21 21 21 21 20 20 20 20 19 19 20 19 20 20 20 19 19 19 18 19 20 21 18 18 20 22 22 24 23 19 17 17 16 15 14 13 12 12 11 11
13 13 13 13 13 13 13 14 15 15 15 14 14 14 14 14 14 14 15 17 18 19 18 17 17 18 17 17 17 18 18 18 16 17 17 17 18 18 18 19 20 19 20 20 19 20 21 21 20 19 19 19 19 19 20 20 19 18 18 18 19 19 19 19 19 18 18 18 19 20 19 17 18 20 22 23 21 18 17 16 15 14 13 12 12 11 11 10
13 13 13 13 13 13 13 14 14 15 14 14 14 14 14 14 14 15 16 16 18 20 19 17 17 17 17 17 17 18 18 17 17 17 17 16 17 18 18 18 19 20 20 19 18 19 20 20 20 19 18 18 19 19 20 20 19 18 18 18 19 19 18 18 18 17 18 18 17 19 20 18 17 20 22 23 20 17 16 15 14 14 13 12 11 10 10 9
13 13 13 13 13 13 13 13 14 14 14 14 14 14 14 13 14 16 16 16 19 21 19 18 17 17 18 17 17 18 18 18 18 17 16 17 17 17 17 18 19 19 20 19 18 19 19 18 19 19 18 18 19 19 19 20 19 17 17 18 18 18 18 18 17 17 18 17 16 18 19 18 18 20 22 21 19 17 16 15 14 13 12 11 10 10 9 9
13 13 13 13 12 12 12 12 13 14 14 14 14 14 13 13 15 16 15 16 19 19 19 18 17 18 18 18 18 19 18 18 18 16 16 17 17 17 17 17 18 18 19 19 18 19 19 17 18 19 19 19 19 18 16 18 18 17 17 18 18 18 18 17 17 17 17 16 17 18 19 18 18 20 21 21 20 18 16 15 13 12 11 10 10 9 8 8
13 12 12 12 12 12 12 13 13 14 14 14 14 14 14 15 16 15 15 17 18 18 19 18 18 19 19 19 19 19 19 19 18 17 17 17 16 16 17 17 17 17 17 17 17 18 18 17 17 18 19 19 19 17 15 15 16 17 18 17 17 18 18 17 17 17 16 17 18 19 19 19 18 20 21 20 20 19 17 15 13 11 10 10 9 8 7 7
12 12 12 12 12 12 13 13 13 13 13 13 13 14 14 15 15 15 16 18 18 18 19 18 18 19 19 19 19 19 19 19 18 18 18 17 17 17 17 17 18 18 17 17 18 17 17 17 18 18 18 18 18 17 16 15 16 17 17 17 16 17 17 17 17 17 16 17 18 19 19 19 18 20 21 20 18 18 17 15 13 11 10 9 8 8 7 7
12 12 12 12 12 12 12 13 13 13 13 13 13 14 14 14 14 15 17 18 19 18 18 18 18 19 19 18 19 18 18 18 18 18 18 18 18 18 18 18 19 19 18 18 18 18 18 18 17 17 17 18 18 17 17 17 16 16 17 17 16 17 17 17 17 18 18 18 18 19 18 17 18 20 20 18 15 14 14 13 11 10 9 9 8 7 7 7
11 11 11 12 12 12 12 13 13 13 13 13 14 14 13 14 15 16 17 18 18 18 18 18 17 18 18 18 19 19 18 18 18 18 18 18 17 18 18 19 19 19 19 18 18 18 18 18 18 18 18 17 17 18 19 19 17 16 18 18 18 18 17 17 17 18 18 18 18 18 18 18 18 18 16 14 13 12 11 10 10 9 9 8 8 7 7 6
11 11 11 11 11 11 12 12 12 12 12 13 14 13 13 14 15 16 17 18 19 18 17 17 17 18 18 18 19 19 19 18 18 17 17 17 17 18 19 20 20 19 18 18 18 18 17 18 18 18 17 17 17 18 19 19 18 17 18 18 17 18 18 18 18 18 17 16 16 17 18 19 19 16 13 13 12 11 10 10 9 9 8 8 7 7 6 6
10 10 10 11 11 11 11 12 12 12 12 13 13 13 13 15 16 16 17 18 18 18 17 16 17 17 17 18 18 19 19 18 17 17 17 18 18 18 19 20 20 19 18 18 18 18 18 18 18 17 17 17 17 18 19 19 19 17 17 18 17 18 18 17 17 17 17 15 16 17 17 18 19 16 13 12 11 11 10 9 9 8 8 7 6 6 6 6
9 9 9 10 10 11 11 11 11 11 12 13 13 13 14 15 17 18 18 18 18 18 17 16 17 17 17 18 18 18 18 17 17 17 17 18 18 18 19 20 20 19 19 19 18 18 17 17 17 17 18 17 16 17 18 18 18 17 17 17 17 17 18 17 16 16 16 14 16 18 17 17 18 16 13 12 11 10 10 9 8 8 7 6 6 6 5 5
9 9 9 10 10 11 11 11 11 11 12 13 13 14 14 15 17 18 18 17 17 17 17 16 16 17 17 17 18 17 16 16 17 16 16 17 18 19 19 19 18 18 19 19 18 18 17 16 17 18 18 17 16 16 17 17 17 17 17 16 17 16 16 17 16 14 14 14 15 17 17 17 17 16 13 12 11 10 9 9 8 7 7 6 6 6 5 5
8 8 9 10 10 11 11 11 11 11 12 13 13 13 14 14 16 17 16 16 16 16 15 15 15 16 16 16 17 17 16 16 17 16 16 17 18 19 19 18 17 17 17 18 17 17 17 16 15 16 17 16 16 16 16 17 16 16 15 16 17 16 15 16 16 15 15 14 15 15 16 17 16 14 13 13 11 10 9 8 8 7 7 6 6 6 5 5
8 9 10 10 9 10 11 10 11 11 12 13 13 13 14 14 15 15 16 16 15 15 15 15 15 14 14 15 15 16 16 16 17 17 17 18 18 17 16 16 16 16 16 17 16 16 17 16 15 15 16 16 16 16 16 17 16 15 15 15 16 16 16 16 15 16 15 14 14 14 15 16 14 11 12 12 10 10 9 8 7 7 6 6 6 5 5 5
9 10 10 9 8 10 10 10 11 12 12 13 13 13 14 13 13 14 15 15 15 15 15 15 14 14 14 14 15 15 16 16 17 17 16 17 18 16 13 13 15 15 15 16 16 15 15 15 14 14 15 15 16 17 16 16 16 15 14 14 15 15 15 14 13 15 15 14 14 13 14 15 12 10 11 10 9 9 8 8 7 6 6 5 5 5 5 4
9 9 9 9 8 9 10 11 11 12 12 12 13 14 14 13 13 13 14 15 14 14 15 14 14 14 14 15 15 16 16 15 16 16 15 16 17 15 13 12 14 14 14 15 14 13 13 13 13 13 14 14 15 16 16 15 15 15 14 14 14 13 13 12 12 14 14 13 13 13 13 13 10 9 11 10 8 9 8 8 7 6 5 5 5 5 5 5
9 9 9 8 8 9 10 11 11 11 12 13 14 14 14 14 13 14 15 14 14 14 14 14 14 14 15 15 15 15 15 15 15 15 15 16 15 12 11 12 13 14 14 14 13 13 13 13 12 12 13 14 15 15 14 15 15 14 14 14 13 13 12 12 12 12 11 12 13 12 12 12 10 9 10 10 9 9 8 8 8 7 6 6 5 5 5 5
10 10 8 8 8 9 10 11 11 11 12 13 13 14 14 14 14 14 14 14 14 14 14 14 14 14 15 15 15 15 15 14 14 15 15 15 13 11 11 12 12 13 13 12 13 12 12 12 11 11 11 12 13 14 13 13 13 12 12 12 12 12 12 11 11 11 10 11 12 11 11 13 10 8 9 9 9 9 9 9 8 8 7 6 6 6 6 6
10 10 9 8 8 8 10 11 11 12 12 12 13 13 13 14 14 14 14 14 14 14 14 14 15 15 14 14 14 14 14 13 13 14 14 13 12 10 10 11 12 12 10 10 12 12 12 12 11 10 10 10 11 12 12 12 12 11 11 12 12 12 12 11 11 10 10 11 11 10 10 12 11 9 9 9 9 9 9 9 8 8 7 6 6 6 6 6
10 10 8 8 8 8 9 10 10 11 12 13 12 13 13 13 14 14 14 14 14 14 14 14 14 14 13 13 13 13 13 13 13 13 13 13 11 10 10 10 10 10 10 10 11 12 11 11 11 11 10 11 11 12 12 12 11 11 11 12 11 11 11 11 10 10 10 10 10 10 11 11 11 11 11 11 10 10 10 9 8 7 6 6 6 6 6 6
9 10 10 9 8 9 9 9 9 10 11 13 12 13 13 13 13 14 13 13 14 14 14 13 13 13 12 12 12 12 13 13 13 13 12 12 11 9 9 10 10 9 10 10 11 11 10 10 10 11 10 11 11 11 12 11 11 11 11 11 11 11 11 10 9 10 10 9 9 10 11 10 10 11 11 11 11 11 11 10 7 6 6 6 6 6 6 6
8 9 10 10 9 9 9 9 9 10 11 11 12 13 13 13 13 13 12 12 13 13 13 12 12 12 12 12 12 11 12 12 12 12 12 12 11 9 9 9 9 9 10 10 10 11 10 9 10 10 10 10 11 11 11 11 11 11 11 11 11 11 10 10 9 10 10 9 9 10 10 9 10 11 11 11 11 11 10 9 7 7 6 6 6 6 6 6
8 8 9 10 9 10 10 10 9 9 10 10 11 12 12 12 13 13 13 12 11 12 12 11 11 12 12 12 11 10 11 11 10 11 10 10 9 9 9 9 9 9 9 9 10 10 9 9 9 9 9 9 10 10 11 11 10 10 10 10 11 10 10 10 10 10 10 9 9 10 9 9 10 10 10 9 9 9 8 7 7 7 6 6 6 6 6 6
7 7 7 8 9 9 9 10 10 9 9 10 10 10 11 11 12 13 12 11 10 11 12 11 11 11 10 11 10 10 10 9 9 10 9 8 9 9 9 9 9 8 8 8 9 10 9 8 9 9 8 8 9 9 10 10 9 9 9 10 10 10 10 9 9 10 9 9 9 9 9 9 9 8 8 8 8 8 7 7 7 7 6 6 6 6 6 6
6 6 6 6 8 9 8 9 10 9 9 9 9 10 10 10 11 12 11 11 10 11 11 11 9 8 8 9 9 9 9 8 8 8 8 8 8 8 8 8 8 8 8 8 8 8 8 8 9 8 7 7 8 8 8 9 9 8 8 8 8 8 9 9 9 9 9 9 9 8 8 8 8 7 7 7 7 7 7 7 7 7 7 6 6 6 6 6
6 6 6 6 7 9 8 8 9 9 9 10 10 10 10 10 11 11 10 9 9 9 10 10 9 8 8 8 8 8 8 8 8 8 8 8 8 8 8 8 8 7 7 7 7 8 7 7 8 8 6 6 8 8 7 7 7 6 7 8 8 8 8 8 9 9 9 9 8 8 8 8 7 7 7 7 6 6 6 6 6 6 6 6 6 6 6 6
Height
818 818 817 817 817 817 817 817 817 816 816 816 815 815 815 815 814 814 814 813 813 812 812 811 810 810 810 809 808 807 806 804 803 803 801 798 798 799 798 799 799 799 800 801 802 803 803 804 804 803 805 805 806 805 805 805 805 811 817 824 825 818 810 801 797 796 795 795 792 790 788 793 795 791 788 787 789 789 787 783 780 778 774 772 771 771 772 772
818 817 817 817 817 817 816 816 816 816 815 815 815 815 814 814 814 814 813 813 813 812 812 811 811 810 809 809 808 807 805 803 802 801 798 796 797 798 798 798 799 799 800 801 802 802 803 803 802 803 805 807 806 805 808 805 807 813 816 821 820 811 801 794 793 791 791 795 792 790 789 791 794 791 788 793 794 791 791 785 780 780 775 770 767 767 769 769
817 817 817 816 816 816 816 815 815 815 815 814 814 814 814 813 813 813 813 812 812 812 811 811 811 810 810 809 808 807 805 802 802 799 795 795 796 797 798 798 798 799 800 801 802 802 802 801 801 803 806 808 806 806 809 807 808 811 814 822 815 803 798 791 790 789 789 791 792 792 790 792 792 789 789 793 795 793 793 787 783 782 777 771 766 765 767 768
816 817 816 816 816 815 815 815 815 814 814 814 813 813 813 813 812 812 812 811 811 811 811 810 810 809 810 809 808 808 804 804 803 797 795 795 796 797 798 798 798 799 800 801 802 802 802 801 801 802 806 809 805 804 809 808 807 807 810 817 807 798 799 794 790 789 787 789 793 794 793 794 790 787 789 792 796 796 790 783 781 779 775 771 767 765 766 767
816 816 816 815 815 815 815 815 814 814 814 813 813 813 812 812 812 811 811 811 810 810 810 810 809 809 809 808 809 806 806 811 803 795 796 796 796 797 797 798 798 799 800 801 802 801 802 802 802 804 808 811 807 806 806 802 803 806 805 805 800 799 801 794 789 789 788 789 792 794 795 794 788 787 788 791 797 793 784 778 775 773 771 770 768 765 764 764
816 816 816 815 815 815 814 814 814 814 813 813 813 812 812 812 811 811 811 810 810 810 809 809 809 809 809 808 809 806 810 813 800 794 797 795 796 797 797 798 798 799 800 801 801 801 802 802 804 808 809 810 809 807 804 797 797 806 804 799 797 797 798 792 788 789 789 791 794 794 793 790 790 791 786 788 789 782 777 774 771 769 767 766 766 765 764 763
816 816 815 815 815 815 814 814 814 813 813 813 812 812 812 811 811 810 810 810 809 809 809 808 808 808 808 808 808 807 810 806 795 795 797 795 797 796 797 798 797 799 799 801 801 801 802 803 806 807 808 809 807 804 800 795 794 802 803 799 797 795 794 791 788 788 789 792 792 791 791 791 793 792 785 784 781 775 773 769 766 765 763 763 763 763 762 760
816 816 815 815 815 815 814 814 813 813 813 812 812 812 811 810 810 810 809 809 808 808 808 808 808 808 808 808 808 809 808 801 794 796 796 795 797 796 797 797 797 799 799 800 800 800 802 804 805 804 808 807 803 801 798 798 799 800 801 798 795 794 791 789 788 788 788 789 788 789 792 791 791 790 785 781 776 771 769 766 763 762 761 761 761 760 759 758
816 816 815 815 815 815 814 814 814 813 813 812 812 811 811 810 809 809 808 808 807 807 807 807 807 807 808 807 808 811 805 796 795 795 795 796 796 796 797 797 798 798 799 800 798 799 801 803 803 802 807 804 800 801 799 804 805 798 798 797 795 795 792 791 790 788 788 786 786 790 792 789 786 788 784 775 771 768 764 763 761 760 760 759 758 757 756 755
815 815 815 815 814 814 814 814 814 813 813 812 811 811 810 809 809 808 807 807 806 806 805 806 806 806 808 806 810 812 801 794 795 794 794 795 795 796 797 797 798 798 799 799 798 799 799 800 799 799 803 803 801 802 800 804 802 795 797 798 796 797 794 792 792 787 787 785 784 789 791 787 784 789 786 772 766 764 762 763 759 759 759 756 755 753 752 752
814 814 814 814 814 814 814 814 813 813 812 812 811 810 809 808 808 807 806 805 805 805 804 805 805 806 807 806 810 807 796 794 795 794 795 795 795 797 797 798 798 799 800 798 798 798 798 798 797 799 804 803 802 801 799 798 796 795 799 800 798 798 794 790 789 785 784 783 780 783 788 785 784 789 784 770 764 763 763 762 759 759 757 754 753 751 750 750
814 814 814 814 814 814 814 814 813 813 812 811 811 809 808 808 806 806 805 804 803 803 803 803 804 805 805 807 805 799 794 795 794 794 795 794 796 797 797 799 798 799 800 799 799 798 798 798 798 803 804 802 804 803 801 797 796 798 801 806 802 797 794 787 784 781 780 781 775 780 793 792 788 785 776 767 763 762 762 761 758 757 755 753 751 749 749 748
813 813 813 813 813 814 814 813 813 812 811 811 810 808 808 806 805 805 803 803 802 802 802 802 803 803 806 805 797 793 793 793 793 794 794 794 795 796 797 798 798 799 800 799 800 799 800 799 800 803 801 802 805 802 799 796 798 801 801 806 804 802 797 783 779 776 775 779 773 782 801 797 784 777 769 764 762 761 762 760 758 756 753 751 749 749 748 747
813 813 813 813 813 813 813 813 813 812 811 810 809 808 807 805 804 803 802 802 801 801 801 802 802 804 806 800 791 791 793 792 793 793 793 794 795 796 796 797 798 799 799 800 800 800 801 800 802 803 802 803 802 799 800 800 800 801 802 803 805 811 802 781 775 774 775 781 774 783 803 797 782 774 767 762 760 761 763 760 757 755 751 749 748 749 748 747
812 812 812 812 813 813 813 812 812 811 811 809 808 807 805 805 804 802 802 801 800 800 800 801 802 803 805 798 790 791 792 791 793 792 793 794 794 795 795 796 798 798 799 800 800 801 801 802 803 806 804 800 801 805 808 807 802 800 807 809 804 808 801 781 773 771 776 782 778 786 800 795 782 773 766 762 761 762 764 761 756 753 750 748 747 748 748 746
811 812 812 812 812 812 812 812 811 811 810 809 807 806 805 804 803 802 801 800 800 800 800 802 801 803 804 797 790 791 791 791 792 792 793 793 794 795 795 796 797 798 799 799 800 801 801 803 804 805 805 803 805 811 814 814 809 801 807 812 805 802 799 786 775 768 773 781 781 785 793 789 779 772 767 764 763 763 763 760 754 751 751 748 747 746 746 745
811 811 811 811 812 811 811 811 811 810 809 808 807 805 804 804 803 802 801 800 801 800 800 801 800 802 800 793 791 791 790 791 791 791 792 793 794 794 795 796 796 798 798 799 800 800 801 803 805 806 806 807 807 810 819 825 819 806 803 805 801 796 795 792 782 771 772 779 782 784 787 786 778 772 769 764 762 762 761 757 751 751 751 748 746 746 746 748
811 811 811 811 811 811 811 810 810 809 808 807 806 805 804 803 803 802 802 801 801 801 802 801 802 806 801 792 791 790 788 790 790 791 791 792 793 794 795 796 796 798 799 801 801 800 803 802 804 808 808 809 809 812 823 824 814 808 804 803 801 795 794 794 789 778 774 778 780 782 784 781 775 770 768 763 760 760 757 752 750 751 750 748 747 748 751 753
810 810 811 810 810 810 810 809 809 808 807 806 805 804 803 802 802 802 802 802 802 801 802 800 800 802 797 789 787 788 788 789 790 791 791 791 793 794 795 795 796 798 800 804 803 801 804 805 808 815 814 810 807 808 812 808 802 802 800 801 803 801 797 791 786 778 775 779 780 780 780 777 774 771 767 761 757 757 754 751 752 751 750 751 752 753 756 759
809 810 810 810 810 810 809 809 808 808 807 806 805 803 802 803 803 802 802 802 800 796 794 794 793 791 788 785 785 788 788 789 790 791 791 791 792 794 795 795 796 799 801 803 804 800 801 811 815 816 813 806 800 796 795 794 793 794 796 798 798 799 798 789 783 776 773 780 781 777 778 777 774 772 765 759 756 755 753 753 752 751 753 756 756 758 761 764
809 809 809 810 810 809 809 809 808 807 807 805 805 804 804 807 808 807 805 800 794 791 790 788 787 787 785 784 785 787 788 789 789 790 792 791 792 795 795 796 801 805 802 798 801 800 802 814 814 806 802 797 793 790 789 789 790 793 797 798 798 799 796 787 782 777 772 780 783 776 779 780 775 770 761 755 757 755 752 751 751 752 757 759 759 763 767 769
808 809 809 809 809 809 809 808 808 807 806 806 805 805 806 808 809 809 809 804 794 788 788 786 785 784 782 783 785 786 788 791 791 791 791 791 792 795 794 795 801 803 797 795 802 807 811 814 806 796 793 791 790 789 789 790 791 795 797 800 803 799 794 787 779 775 774 782 785 779 782 782 772 764 757 754 755 752 746 748 753 757 764 766 766 769 772 774
807 807 808 809 809 810 809 808 808 807 806 806 806 806 807 808 808 807 809 809 798 786 784 784 783 782 781 783 784 785 790 791 791 790 789 791 793 793 793 795 798 797 794 796 803 810 813 806 793 788 788 790 791 789 789 791 791 796 799 803 805 797 796 795 784 778 778 781 784 782 784 782 771 762 754 751 749 747 746 752 758 763 768 773 774 775 777 779
806 807 808 808 809 809 809 809 808 807 808 807 807 808 807 808 808 808 808 806 797 786 782 781 781 781 782 783 784 786 789 787 787 788 788 789 791 791 792 793 795 797 795 793 796 802 803 792 783 784 787 789 793 791 790 794 796 795 795 799 800 793 793 795 788 785 784 784 782 783 788 783 770 763 756 748 746 749 754 760 765 769 771 774 777 779 782 784
805 806 807 807 809 808 809 809 808 808 808 807 809 808 808 808 807 808 809 805 798 788 783 782 781 783 783 783 785 785 785 785 786 789 788 788 789 791 791 789 792 798 794 790 793 797 794 786 782 787 788 789 794 795 792 796 801 799 793 792 794 792 792 793 792 793 798 798 786 786 801 793 767 761 761 750 750 760 765 767 774 777 777 779 781 784 787 787
805 805 806 807 808 808 809 809 808 809 808 808 809 807 808 808 807 808 809 810 802 788 784 785 783 784 784 784 785 784 788 789 788 788 788 789 789 789 792 789 790 795 792 789 792 793 789 785 785 790 792 792 796 798 793 794 803 804 796 792 792 791 794 796 797 801 807 805 789 787 806 804 778 769 764 753 757 770 773 774 778 781 783 785 788 791 792 792
803 804 805 806 806 808 808 807 808 808 807 809 807 807 808 806 808 808 809 817 805 783 783 787 784 785 784 784 784 787 793 792 789 789 788 790 789 788 794 793 791 793 788 792 800 794 787 787 791 794 796 798 801 801 793 792 803 805 796 794 794 793 797 798 800 806 805 801 794 789 798 804 793 778 761 752 765 776 777 781 783 784 787 789 792 795 796 798
802 802 803 804 805 806 807 806 807 807 807 808 806 808 807 806 809 806 814 826 803 776 781 786 784 785 783 784 785 786 791 788 790 793 788 790 791 789 795 794 791 791 787 796 806 795 785 790 793 794 799 802 800 796 790 789 798 800 796 795 794 795 799 798 801 805 801 803 805 792 790 802 796 774 754 752 768 780 781 784 786 787 790 792 794 797 798 800
799 800 801 803 803 804 805 806 806 806 807 807 807 808 806 807 808 806 821 826 794 774 781 784 785 786 783 786 786 785 787 786 790 793 789 790 791 791 795 793 790 791 787 792 799 792 788 792 790 791 798 798 792 791 790 789 794 797 796 795 794 795 796 798 802 804 803 809 810 794 788 800 794 768 754 758 769 780 783 786 789 791 794 796 797 799 800 801
797 798 798 800 802 803 804 805 804 805 806 806 807 807 806 808 809 817 829 818 791 781 783 783 786 785 784 788 787 785 785 786 788 791 791 790 790 791 792 791 791 793 792 792 793 789 788 792 791 789 790 788 787 792 795 793 794 796 796 796 797 795 794 799 800 801 810 811 802 790 783 794 796 772 758 761 764 772 781 785 789 793 795 798 800 801 802 802
795 796 797 798 800 801 803 803 803 804 805 806 807 806 807 809 813 825 825 803 791 789 784 785 787 783 785 787 787 785 784 786 787 790 793 792 794 795 794 794 795 798 800 800 796 791 791 795 792 786 784 783 787 793 797 797 796 796 798 800 803 799 797 804 804 805 817 810 792 784 778 786 796 777 760 762 760 762 771 778 786 792 796 799 801 803 804 803
794 795 796 797 799 799 801 801 802 804 804 805 806 806 810 816 817 819 810 794 793 792 784 786 786 782 785 785 785 786 785 786 787 788 791 792 795 795 794 794 793 798 804 799 795 794 793 792 787 785 785 785 789 795 799 799 798 798 800 805 811 808 804 810 811 809 813 804 789 783 780 787 789 770 757 762 765 764 767 773 783 791 796 800 802 804 806 806
794 794 795 797 798 798 799 800 801 803 804 804 806 807 814 823 817 806 800 793 792 788 783 786 785 783 786 787 787 787 787 787 786 787 786 787 791 791 788 786 783 791 796 793 793 795 792 787 785 788 787 784 787 795 798 797 799 802 800 803 810 811 812 814 808 803 800 796 789 783 787 793 786 769 760 766 775 776 775 780 787 792 797 801 803 805 806 807
793 793 794 795 797 798 798 801 801 802 803 804 806 812 819 819 807 797 795 789 785 784 784 787 788 787 788 789 787 784 787 789 786 788 788 789 794 791 786 783 780 783 789 793 795 795 797 794 787 786 785 782 784 786 785 786 794 797 789 791 799 800 807 811 805 801 799 795 790 787 790 789 781 776 775 777 783 785 786 790 793 797 800 802 804 807 807 807
793 793 794 794 796 797 798 801 800 801 804 803 808 816 817 809 799 795 792 783 781 784 787 788 788 791 791 787 783 779 783 788 786 788 790 790 791 788 782 779 778 781 788 796 794 789 796 792 780 780 780 780 783 779 776 781 790 793 785 789 796 791 792 799 797 795 798 802 797 790 787 775 769 777 782 784 789 790 793 796 798 801 803 804 807 808 809 810
792 793 794 794 795 796 798 800 800 801 802 804 810 813 805 797 791 789 784 778 779 782 788 791 790 794 795 788 784 780 780 785 787 789 789 787 785 782 779 775 774 778 784 791 789 787 794 790 779 782 783 779 782 779 777 780 787 793 792 793 792 785 785 795 798 792 797 809 799 785 784 774 768 778 785 787 792 795 798 800 802 806 806 808 811 811 812 813
792 793 793 793 794 795 797 799 800 802 803 806 809 803 795 790 784 781 778 778 780 779 786 794 791 791 793 788 785 784 784 786 788 791 790 785 783 779 776 775 773 775 777 781 785 786 792 792 782 780 783 781 781 781 779 778 782 790 794 791 787 786 787 793 802 802 803 810 796 780 785 783 776 781 787 789 794 799 803 805 807 809 810 812 813 813 814 814
792 793 793 791 792 794 796 798 799 801 803 804 802 795 790 789 781 778 778 779 781 781 787 794 790 786 789 789 786 785 791 792 789 793 793 787 783 775 773 777 777 777 775 777 785 785 788 796 787 777 781 783 781 784 785 782 782 786 789 788 788 796 797 793 803 810 809 810 798 784 783 780 775 780 785 789 795 801 805 807 810 811 812 813 813 813 814 814
793 795 793 788 789 792 795 797 798 801 801 799 797 793 789 787 782 779 780 781 783 787 791 793 791 791 792 792 789 787 792 792 787 790 791 786 782 774 772 778 781 781 779 779 786 785 786 798 796 782 781 784 783 787 790 787 786 788 790 789 787 794 798 794 796 798 800 804 798 791 786 776 775 783 784 785 792 800 805 808 811 813 812 813 813 813 814 814
792 794 791 786 788 790 793 796 798 800 797 791 791 791 788 786 784 781 781 782 784 788 791 792 793 797 796 794 793 790 790 789 785 787 786 781 779 779 781 783 783 785 784 782 786 787 786 794 798 789 785 788 788 787 788 787 788 791 794 795 792 791 792 793 793 787 793 802 798 797 791 777 782 793 790 790 795 798 804 808 811 813 813 814 814 814 814 814
792 793 789 786 788 789 792 797 797 795 793 788 787 788 786 786 786 784 783 783 784 785 787 789 791 793 794 794 792 789 788 786 784 785 786 781 779 784 789 789 787 787 788 786 789 793 792 795 799 796 792 792 788 782 783 786 787 792 797 798 796 796 798 804 802 788 789 796 796 798 792 780 791 800 793 798 803 800 805 808 810 813 814 814 814 814 814 814
792 792 787 786 789 789 791 794 791 790 789 785 782 782 783 785 786 785 783 783 785 785 784 786 788 788 789 789 786 784 785 786 785 785 786 782 779 785 793 792 789 788 790 793 794 797 798 799 803 801 795 792 786 781 783 784 784 789 794 794 795 800 805 810 806 795 793 795 793 798 793 786 799 802 794 799 803 801 805 806 807 811 812 812 813 812 813 813
789 787 786 786 788 788 791 792 789 789 786 780 777 778 778 780 782 782 781 782 785 785 784 784 784 785 785 784 784 784 784 787 786 785 785 783 785 793 796 792 791 791 791 795 797 799 800 801 805 804 797 790 784 782 785 786 785 790 793 794 797 801 803 805 805 805 809 803 795 800 796 788 799 803 795 797 799 798 801 800 802 807 807 809 810 810 811 811
784 783 785 787 787 788 789 786 785 785 782 778 778 777 775 775 777 778 779 780 781 782 784 782 781 782 781 780 782 782 784 788 786 783 784 785 790 798 797 792 793 794 795 798 798 800 804 804 809 813 809 801 793 789 791 792 794 799 801 800 801 801 802 805 806 809 811 801 796 806 800 786 794 803 800 799 798 797 797 797 799 802 803 807 808 808 809 810
781 782 784 785 786 787 784 778 777 778 777 777 778 776 775 774 772 774 776 777 776 778 781 780 778 778 779 780 782 782 783 787 788 786 785 787 794 800 799 796 795 796 801 803 798 799 804 804 807 815 818 814 806 797 796 799 801 803 803 801 801 801 801 805 808 810 809 800 800 809 801 787 791 799 798 797 797 796 796 797 798 799 802 805 806 807 809 809
779 780 783 786 786 785 781 778 778 778 774 774 775 773 774 774 770 770 773 776 775 775 777 778 777 779 781 783 786 786 784 785 788 788 787 789 795 801 801 799 799 800 804 803 799 801 805 804 804 809 811 809 805 798 796 800 806 806 803 800 800 801 801 805 810 812 808 806 807 804 796 792 791 788 788 791 794 793 793 795 799 800 802 804 805 806 807 808
780 776 775 780 783 782 780 779 779 779 774 771 771 768 769 771 770 771 773 775 774 774 776 778 778 782 784 784 787 788 786 785 786 787 788 789 795 802 803 800 802 804 803 802 802 803 808 809 805 805 807 804 801 800 798 800 805 804 802 800 799 799 801 805 810 808 805 810 808 795 790 797 794 786 786 788 789 788 787 790 797 800 802 803 804 805 806 807
780 774 768 770 773 774 775 775 776 777 775 772 770 766 766 769 770 771 774 775 775 775 778 780 780 780 781 782 786 789 788 788 788 787 788 791 795 802 804 802 804 805 803 804 803 803 810 812 805 804 807 804 801 801 799 800 802 801 800 799 797 797 798 801 804 803 802 807 804 793 792 796 793 787 786 786 786 786 787 790 795 798 800 802 803 804 805 805
777 775 770 768 768 767 767 768 773 777 777 775 773 769 768 769 767 767 770 775 779 777 778 782 781 778 779 780 785 791 791 792 793 791 793 798 800 802 804 805 806 805 804 806 804 803 811 812 806 807 810 806 804 803 800 802 804 802 801 799 795 793 793 795 798 796 797 800 796 794 795 793 789 788 788 789 791 790 792 795 796 798 800 801 803 804 803 803
776 777 774 770 769 767 767 767 771 776 776 775 775 772 770 771 768 766 768 774 781 779 776 780 781 782 783 783 787 792 792 794 797 795 798 803 802 803 804 804 805 806 808 809 807 806 811 812 807 809 814 811 806 805 805 805 806 805 804 799 795 794 794 796 796 795 797 798 793 794 797 792 790 793 793 794 794 793 795 796 796 798 799 800 801 802 802 802
778 778 777 776 772 769 770 769 768 774 775 773 773 771 771 772 769 768 770 772 775 776 774 778 784 788 791 790 790 793 794 797 799 798 800 803 802 803 805 804 805 809 810 811 810 809 812 813 807 809 819 816 806 808 811 806 808 812 808 799 795 797 797 795 793 793 795 796 795 797 797 792 793 797 797 794 795 795 796 796 796 798 798 799 801 801 801 802
778 778 777 779 775 767 769 771 769 771 771 767 767 768 770 771 768 769 774 775 776 777 776 779 784 789 792 794 795 794 794 797 799 799 801 803 802 803 805 805 806 809 810 811 812 811 811 815 812 813 821 818 808 811 815 814 820 818 803 793 794 795 794 793 792 791 790 791 795 797 793 791 793 796 796 796 797 797 797 798 799 799 799 799 800 800 801 801
Wind_Speed
4 4 4 4 3 3 3 3 3 3 4 4 5 5 5 5 5 6 6 6 6 7 7 8 9 9 10 10 11 12 15 16 14 9 9 12 10 7 9 8 7 4 6 6 6 5 4 6 6 5 4 2 2 2 2 2 1 0 1 2 3 5 5 4 5 4 4 5 5 2 2 3 4 1 1 2 3 5 9 10 7 7 9 12 18 15 10 12
4 4 4 4 4 4 4 4 4 4 4 4 5 6 6 6 6 6 7 7 7 7 8 9 9 10 10 10 11 13 16 17 13 11 14 15 12 10 8 6 5 3 7 8 7 7 5 5 6 7 3 1 3 2 2 2 3 2 2 3 4 4 5 6 7 6 5 5 7 7 6 6 6 4 2 2 7 5 8 11 7 8 9 12 17 17 15 14
5 5 6 6 5 5 5 5 4 5 5 5 6 6 7 7 7 7 8 8 8 7 8 9 10 10 10 10 11 12 15 14 9 7 5 5 6 6 4 3 3 3 6 7 7 8 7 6 4 6 3 2 3 3 2 2 3 4 3 3 5 5 7 7 8 7 5 6 7 6 6 6 7 6 2 5 8 6 8 11 8 9 9 9 9 10 16 16
5 5 6 6 6 6 6 6 5 5 6 6 7 7 8 8 8 8 9 9 9 9 8 9 9 10 9 9 9 10 11 8 3 1 5 6 5 3 1 1 2 3 7 6 4 7 8 7 4 4 3 3 4 3 3 2 2 3 4 4 5 5 7 8 9 9 5 4 4 6 6 8 8 5 4 5 7 6 8 10 9 10 10 9 10 6 6 11
5 6 6 6 6 6 6 6 6 6 6 6 7 7 8 9 9 9 10 10 10 10 9 9 9 9 8 8 7 7 8 3 0 3 7 5 4 3 2 1 1 5 9 4 4 6 6 6 5 3 3 3 4 3 4 6 4 3 4 6 7 6 8 8 10 6 3 3 4 6 7 7 6 6 5 5 7 7 7 10 11 12 11 11 11 10 9 7
5 6 6 6 5 6 6 6 6 5 6 6 7 8 8 9 10 11 11 11 11 11 10 10 9 8 7 6 4 4 3 2 0 4 8 4 2 0 3 2 0 7 9 4 5 5 4 6 5 3 3 4 5 5 6 7 6 4 5 6 7 8 9 9 9 3 2 3 6 6 6 7 8 9 7 7 11 10 9 11 14 14 14 14 12 10 10 11
6 6 6 6 5 6 6 6 5 5 6 7 7 8 9 10 11 11 12 12 12 12 11 11 10 8 7 4 2 1 2 5 6 6 9 6 4 3 3 2 3 9 8 7 8 6 5 5 5 4 4 5 6 7 7 6 5 5 6 6 8 10 11 10 9 5 2 6 7 6 6 8 10 9 7 9 12 12 11 12 14 14 14 14 12 10 11 11
6 7 7 6 5 6 6 5 5 5 7 7 8 9 9 10 11 12 13 13 13 13 12 12 10 8 5 2 2 3 4 6 7 5 7 7 6 5 4 3 6 10 9 10 9 6 5 5 6 4 5 6 6 7 5 5 5 7 7 6 8 8 9 8 8 8 7 8 7 5 8 11 11 8 11 14 14 13 13 14 14 13 12 12 11 11 11 10
7 6 6 6 6 5 5 5 5 6 7 8 9 9 10 11 12 12 13 13 14 13 13 11 9 6 2 0 2 4 4 5 6 4 5 7 6 5 4 4 8 11 9 10 11 8 5 4 5 2 4 5 5 7 6 4 4 5 6 6 7 7 8 9 10 11 10 8 5 5 10 12 9 7 11 15 13 12 12 13 13 11 11 10 10 11 10 9
7 6 6 5 4 4 3 3 4 5 7 8 9 9 10 11 12 13 13 14 14 14 13 11 8 5 2 1 3 4 3 3 4 3 5 5 3 3 4 4 7 10 8 9 11 9 6 4 2 2 3 4 5 6 5 6 5 4 6 7 9 9 10 10 12 15 12 10 10 9 10 12 7 3 8 11 10 10 9 9 9 8 9 9 9 9 8 9
7 6 5 5 3 2 2 3 4 5 7 8 9 10 11 11 12 13 13 14 13 13 13 10 7 4 2 2 4 4 2 2 2 1 3 3 1 3 6 4 5 10 9 9 10 9 7 4 4 2 1 2 4 7 5 5 4 5 6 8 10 10 12 13 13 15 11 8 10 8 8 10 6 4 11 15 12 10 9 10 10 8 9 9 9 9 8 7
6 5 5 4 3 3 3 4 5 7 8 9 10 10 11 12 13 13 14 14 13 13 12 8 5 4 3 3 7 9 6 4 4 3 3 2 1 4 8 7 6 8 8 7 6 5 4 5 5 1 3 2 4 6 3 3 5 4 4 7 11 10 12 15 13 13 12 8 6 4 1 6 7 9 14 16 13 10 10 10 10 8 9 9 9 9 7 7
5 5 5 3 2 3 4 5 7 9 10 10 11 11 12 12 12 12 12 12 12 11 9 6 3 6 3 3 7 14 15 12 9 7 6 4 4 6 8 9 7 7 6 4 4 4 3 4 4 4 5 4 5 3 1 1 2 3 3 5 9 8 9 11 10 12 11 4 7 7 0 4 7 10 11 10 7 7 8 8 8 8 8 9 8 8 7 7
5 5 4 2 2 4 5 6 8 10 10 11 11 13 13 12 11 10 10 10 9 9 6 3 6 7 3 4 5 10 13 12 9 6 5 3 2 3 6 8 7 7 5 2 4 4 4 4 3 4 5 5 5 5 4 4 3 5 6 5 5 4 5 8 9 6 4 0 7 6 3 4 6 10 10 6 1 3 7 8 9 10 10 10 8 8 8 7
6 5 3 3 3 4 6 7 9 11 11 12 12 14 12 10 9 9 9 8 7 4 1 5 8 6 2 5 4 5 6 5 3 3 3 3 3 2 3 5 4 5 4 2 2 3 3 3 1 2 4 4 4 5 6 4 3 5 5 4 3 4 5 7 8 4 6 1 3 6 2 5 7 8 7 7 5 7 9 10 13 12 12 12 9 7 7 6
5 4 3 4 4 5 6 8 9 11 12 12 14 14 11 8 8 8 6 5 2 2 5 5 8 5 4 2 3 2 3 2 4 6 5 4 5 2 6 6 3 4 3 2 1 1 1 0 1 1 3 3 3 4 4 4 4 4 4 5 5 6 5 4 5 3 8 3 2 5 3 5 5 5 7 9 11 11 11 13 16 14 12 11 9 7 6 5
4 3 3 4 5 6 7 9 10 11 12 12 14 13 8 7 6 5 3 2 3 5 5 1 5 5 3 1 2 2 3 3 5 6 4 5 6 4 7 5 4 5 4 3 2 2 3 2 1 1 2 3 3 3 3 4 4 3 4 5 6 6 6 4 4 2 5 5 4 7 7 7 7 8 9 10 11 11 11 14 16 12 9 9 9 7 5 4
3 1 3 4 5 6 7 8 9 11 11 12 14 12 7 6 4 2 2 2 4 4 2 1 2 3 2 2 2 2 5 5 5 3 2 6 8 6 6 4 4 6 5 3 3 4 3 2 2 1 3 4 4 3 4 5 5 5 5 5 6 7 7 7 6 5 4 4 6 7 8 8 8 8 8 10 11 11 14 15 12 9 9 10 8 6 6 10
2 1 3 6 6 6 7 8 9 11 11 11 13 13 8 5 5 3 2 2 1 0 1 1 4 2 3 2 2 5 6 5 5 3 4 7 7 7 6 3 4 5 4 2 4 5 3 1 3 2 3 5 5 6 8 9 9 10 9 8 8 8 7 8 8 7 9 10 8 8 9 7 7 8 10 12 12 13 15 13 10 10 10 7 6 6 10 13
1 1 3 6 6 6 7 8 10 11 10 11 13 12 6 2 3 1 3 5 6 7 6 3 7 6 8 4 4 5 3 4 3 3 7 8 8 7 5 4 3 3 3 3 3 4 4 3 3 4 5 7 9 10 11 11 10 11 9 9 9 8 7 8 9 9 8 8 7 6 8 8 7 9 13 15 13 13 14 10 11 10 5 5 7 9 12 12
1 1 3 5 5 6 6 7 10 9 7 9 12 8 2 3 2 1 1 5 10 13 11 9 10 11 12 5 6 5 1 3 4 4 8 9 8 6 5 5 4 2 5 6 2 2 2 3 4 7 9 11 12 10 11 11 9 9 8 8 8 7 8 9 11 11 6 4 4 5 7 8 8 12 16 16 12 11 12 10 10 4 6 7 8 12 13 10
1 2 4 5 5 6 6 7 9 7 5 6 7 4 3 3 1 1 2 5 7 11 11 13 14 13 13 5 6 4 2 2 4 5 8 9 5 4 4 5 5 4 5 6 3 2 2 5 9 11 11 11 11 10 10 11 9 7 7 7 6 5 7 8 9 9 2 1 3 6 7 7 10 15 17 14 10 10 10 4 3 8 11 10 11 12 11 11
3 4 6 5 5 7 8 8 8 5 5 5 4 3 3 1 1 1 2 3 6 10 9 10 11 9 9 3 6 3 1 5 5 5 10 10 4 2 4 5 5 4 4 6 5 3 4 5 9 11 11 10 11 9 9 9 6 5 5 5 6 5 6 6 4 5 4 3 6 9 8 7 11 15 13 12 9 6 2 9 13 12 13 12 12 11 11 12
5 6 5 5 5 7 8 10 7 3 2 3 4 3 2 0 1 1 1 3 5 6 3 2 2 2 2 2 4 1 4 4 3 4 9 8 3 2 3 5 5 5 5 7 8 8 7 6 4 5 8 9 8 8 7 7 5 5 6 6 7 7 8 6 4 6 6 6 6 6 5 5 8 9 6 6 4 3 9 15 14 11 12 11 12 12 12 12
8 8 6 5 7 6 8 10 5 1 1 2 3 3 2 1 1 2 1 3 4 2 1 1 1 1 1 2 2 1 3 2 2 3 5 2 1 2 2 3 4 5 6 8 9 8 8 7 4 4 5 6 6 6 6 5 4 5 5 5 5 5 5 5 7 7 5 4 3 3 2 3 5 6 6 7 3 7 11 13 12 11 11 11 11 11 10 10
11 10 8 7 8 6 6 5 1 1 1 2 1 3 2 2 1 1 0 2 4 1 1 1 1 2 3 3 3 0 2 1 2 2 3 1 2 0 1 1 1 3 3 3 4 3 3 1 2 1 3 4 4 6 6 5 4 5 3 3 4 4 5 6 6 5 1 3 3 2 1 4 5 5 9 12 1 9 10 11 11 9 10 10 9 8 8 8
15 13 11 10 9 7 4 1 1 2 1 2 1 3 3 2 0 1 1 2 4 1 2 0 0 1 2 2 3 1 1 3 2 1 1 1 1 1 1 1 1 1 0 2 1 1 3 3 3 3 1 2 4 6 5 4 4 4 2 4 5 5 5 4 3 2 4 4 5 4 4 6 5 5 13 12 5 11 8 9 9 8 9 9 8 8 8 8
18 17 15 14 12 10 8 3 1 1 1 2 1 3 4 1 1 1 1 3 3 2 2 0 1 0 1 2 2 1 1 3 2 1 1 1 1 2 1 3 2 2 3 3 2 1 1 4 4 4 3 4 5 4 3 2 3 2 0 2 3 2 2 3 3 4 4 3 4 5 6 4 4 5 11 7 8 9 6 8 7 8 9 8 8 8 7 7
19 20 19 17 13 13 13 8 3 2 1 1 2 3 3 0 2 1 1 2 1 2 1 1 2 1 2 2 3 2 2 2 1 1 1 1 2 0 1 2 4 4 3 5 5 3 0 1 2 4 4 5 5 3 1 1 2 2 2 1 2 3 4 3 4 3 3 3 5 6 6 3 4 6 5 2 8 6 5 6 6 7 7 7 7 7 6 6
17 18 19 17 13 11 11 8 9 8 5 3 3 3 2 0 0 1 3 2 1 1 1 1 1 2 5 4 3 4 4 2 2 3 2 1 2 1 1 1 2 3 2 3 6 6 1 2 1 2 5 4 3 2 2 2 1 1 1 2 4 5 4 3 3 1 2 3 5 7 9 7 3 5 1 4 6 9 7 6 7 7 6 6 6 6 6 5
14 14 16 16 13 10 7 5 10 12 8 6 4 1 1 0 1 3 4 1 1 0 2 2 1 2 5 3 2 4 4 3 4 4 2 1 3 2 2 0 1 2 2 3 5 6 2 1 1 2 4 3 3 2 1 2 2 2 0 2 4 4 1 1 0 1 1 3 4 5 3 8 4 3 2 5 6 10 10 9 10 9 7 6 6 5 5 5
13 13 14 16 14 11 8 4 5 10 10 7 3 1 0 1 3 4 2 1 0 1 1 2 2 4 4 0 1 1 2 3 5 4 3 3 4 4 4 3 2 1 2 2 1 2 3 5 5 2 1 2 3 1 1 1 2 3 2 1 1 2 1 0 0 2 3 4 3 3 6 3 5 5 4 3 6 5 7 9 10 10 8 7 6 5 5 4
13 13 14 16 15 12 10 6 5 10 11 7 3 1 1 3 4 4 4 2 1 1 1 2 0 2 1 1 0 1 1 1 4 3 2 3 3 4 6 7 5 3 2 1 2 2 1 2 4 2 2 2 5 3 2 1 2 5 4 4 3 1 2 2 2 3 3 3 4 1 6 1 3 5 5 3 7 6 9 9 8 9 8 7 6 5 5 5
11 11 12 15 15 13 11 7 8 12 11 7 4 2 3 6 3 3 6 6 2 1 1 2 1 1 1 2 3 3 1 1 3 3 1 2 2 4 5 8 8 5 1 0 1 2 2 3 3 5 1 5 8 6 4 2 4 6 4 4 4 2 3 4 3 4 3 2 5 4 3 1 4 1 2 7 8 7 9 9 9 9 7 7 6 5 5 6
8 9 10 12 14 15 13 9 10 13 10 5 3 3 6 6 2 3 4 4 2 2 2 2 1 2 3 3 4 3 3 2 2 3 2 3 3 3 3 4 7 5 2 1 1 2 3 4 3 3 1 7 8 6 2 3 1 3 0 2 1 3 4 3 4 4 2 3 4 4 3 3 2 4 6 8 8 8 8 8 8 8 6 6 6 6 5 5
6 7 8 10 13 16 15 12 11 11 8 5 3 5 7 4 2 3 2 0 1 2 3 1 1 3 4 3 4 4 2 2 2 1 2 4 4 5 4 2 4 7 5 3 1 1 2 3 2 4 1 4 3 1 1 1 0 1 2 1 3 2 3 1 4 2 0 3 4 3 3 4 1 3 5 7 8 8 7 7 8 6 6 6 5 5 5 4
4 4 5 8 12 14 16 15 12 10 6 3 4 6 4 2 3 3 1 1 0 2 3 3 2 3 4 3 3 4 2 1 2 2 1 3 2 4 5 3 2 6 5 3 1 2 1 2 2 3 2 3 1 3 2 1 2 3 1 2 2 3 2 1 2 1 1 5 4 3 6 6 4 2 3 7 7 7 6 6 6 6 6 6 5 5 4 4
1 2 5 10 14 14 14 16 14 10 4 3 8 8 2 2 4 4 0 2 0 2 3 3 2 1 1 2 2 3 3 0 3 4 1 2 2 2 3 1 3 3 1 2 0 2 0 2 4 3 2 2 1 3 2 3 3 3 2 0 2 0 1 1 1 2 4 6 4 4 7 7 4 2 1 6 7 7 6 5 6 5 5 4 4 4 4 4
2 0 3 8 14 15 15 16 12 6 3 5 8 7 2 2 4 3 1 2 1 2 2 2 0 2 3 2 3 1 4 4 4 4 2 3 3 1 3 2 3 5 6 5 1 2 1 1 2 1 1 1 2 2 2 3 2 3 1 1 1 3 3 2 1 2 4 6 5 5 7 6 2 2 2 4 8 8 7 5 5 3 3 3 3 3 2 2
3 1 1 3 11 18 18 14 8 4 5 5 6 4 2 1 4 3 0 2 2 1 2 2 2 2 4 5 6 5 3 4 4 3 2 2 2 2 5 4 2 3 4 4 1 2 1 3 3 1 2 1 0 2 3 2 1 2 1 2 2 1 1 1 2 3 4 5 5 6 7 4 1 3 4 6 8 7 7 6 5 4 3 3 2 2 2 2
3 2 1 6 12 18 17 10 5 5 5 5 5 4 2 1 1 2 2 2 2 2 2 3 5 6 5 6 8 6 4 5 5 4 3 3 3 1 3 3 3 2 2 2 1 1 1 2 2 2 2 1 2 1 3 2 3 3 1 2 3 2 1 3 5 3 3 4 4 6 8 4 1 3 3 6 6 6 7 6 5 5 5 4 4 4 4 4
3 2 3 9 14 17 14 7 6 4 4 6 5 5 4 3 2 4 5 5 4 4 4 4 6 7 6 6 6 5 3 2 2 3 2 3 2 0 1 2 3 3 2 2 1 1 1 2 1 4 4 5 7 4 2 2 3 3 2 2 2 0 1 4 6 3 1 3 2 4 6 2 2 2 2 5 5 7 8 8 7 6 7 7 6 6 6 5
3 2 5 11 17 17 10 6 6 4 5 6 4 5 6 5 4 6 7 6 5 5 5 5 6 7 7 7 5 5 4 3 3 4 3 2 1 3 1 2 3 3 2 1 0 1 2 2 1 3 4 6 9 5 3 4 2 1 0 1 2 1 1 3 4 1 1 3 3 5 5 2 2 3 1 4 6 7 7 8 8 7 6 6 6 6 5 5
3 2 3 9 18 17 8 5 6 7 7 7 7 8 7 5 6 6 6 7 6 5 5 5 6 6 6 5 5 6 5 3 4 4 3 2 1 4 4 4 3 2 2 1 1 1 1 0 1 1 2 4 5 2 3 5 4 2 1 2 1 2 2 2 2 2 2 4 4 4 4 2 2 3 4 4 5 5 6 6 6 6 6 6 6 5 4 4
3 2 1 4 12 12 6 3 3 5 8 9 9 10 9 6 7 7 7 7 6 5 5 4 5 5 4 3 3 4 4 3 2 1 0 1 2 3 4 5 4 3 2 2 2 0 1 1 2 2 3 3 4 3 1 1 2 1 2 3 3 4 4 3 2 2 4 2 2 4 6 4 3 5 6 6 6 5 5 6 5 5 5 5 5 4 4 4
3 3 1 2 5 6 4 2 2 3 5 8 8 9 11 9 6 6 7 7 7 7 5 3 2 2 2 3 3 4 5 4 3 2 1 1 2 2 2 4 5 4 2 2 4 2 0 1 3 5 6 6 7 6 3 1 2 3 5 6 7 7 5 4 4 5 3 3 4 8 9 8 9 10 7 3 5 6 6 6 5 4 4 4 4 4 4 4
2 2 4 4 3 5 4 4 5 4 3 4 5 6 10 10 6 5 7 5 5 6 5 4 3 3 4 5 4 5 6 5 5 5 4 2 2 2 2 3 5 3 2 1 2 1 1 2 5 7 8 8 8 9 9 8 7 7 8 10 10 9 6 7 7 5 3 4 8 11 10 9 10 11 10 6 4 7 7 6 6 5 5 5 4 3 2 3
2 2 2 2 2 5 7 7 8 9 7 5 3 3 7 10 9 6 6 4 1 2 4 4 5 7 8 6 3 3 4 5 5 4 3 2 3 3 2 2 3 3 2 1 1 2 2 3 5 5 7 9 9 10 10 9 9 9 10 12 13 12 12 11 9 7 5 7 10 10 12 12 11 11 13 9 4 2 1 3 5 5 5 5 4 2 3 4
2 2 2 2 1 4 7 8 9 10 11 7 4 5 6 8 10 7 4 4 2 2 4 5 5 7 7 5 3 3 3 3 3 2 2 2 2 3 2 0 1 2 2 2 0 1 1 3 3 3 5 8 9 9 8 7 8 10 12 14 15 16 15 12 9 9 9 10 11 12 14 15 12 9 7 4 3 4 4 5 5 5 5 5 4 4 4 4
1 1 1 2 1 0 2 5 8 8 10 8 6 6 4 6 9 5 2 4 4 4 6 7 4 2 2 3 4 3 2 3 3 1 3 3 1 1 1 1 1 1 1 1 1 2 1 1 1 1 2 6 7 6 4 5 7 9 11 14 15 16 13 11 10 9 9 11 13 13 14 13 8 2 1 1 3 4 3 3 4 5 5 4 2 2 3 3
1 1 1 2 2 1 1 2 5 6 7 8 8 7 5 7 9 5 0 1 2 3 4 5 6 5 4 3 4 3 2 6 5 3 4 3 2 1 0 0 3 3 1 1 0 1 1 1 0 1 2 6 7 3 2 4 6 8 13 17 18 15 12 11 10 9 10 12 12 12 12 9 3 1 2 2 3 3 3 3 3 3 5 5 2 2 3 2
1 2 3 1 2 3 3 2 4 5 6 6 7 7 6 6 7 6 3 1 4 2 2 6 8 5 2 4 4 2 4 6 5 4 4 3 1 1 1 1 2 4 3 2 1 1 1 1 1 1 3 6 7 2 3 1 5 8 12 15 15 14 13 13 12 12 13 12 10 9 8 5 4 4 4 3 3 3 3 3 3 2 2 2 3 3 3 2
Wind_Direction
328 323 318 315 309 301 296 296 298 302 309 308 306 307 309 312 314 318 319 319 321 325 325 322 322 324 325 328 328 327 322 318 314 289 254 270 275 273 286 280 283 266 209 169 148 176 177 200 209 188 193 156 191 218 127 154 196 200 209 223 247 247 259 328 331 328 347 334 335 315 334 338 318 301 102 7 260 251 271 269 258 248 239 235 242 242 212 191
324 326 325 318 316 315 306 303 302 303 304 301 301 305 308 312 315 316 315 314 315 320 319 318 319 320 324 327 329 328 322 319 307 271 262 275 270 260 283 287 275 238 189 176 176 201 205 211 196 180 200 188 178 151 136 168 158 205 240 240 248 253 278 318 314 319 341 322 318 318 328 335 330 331 22 300 278 280 284 280 278 268 260 250 241 225 197 189
317 324 323 319 323 325 323 320 317 312 308 308 308 309 311 312 313 313 313 312 313 316 316 315 317 320 325 329 332 331 324 320 303 276 272 270 238 232 271 285 273 226 183 182 194 219 243 280 213 178 215 238 200 152 157 163 151 208 219 243 250 263 287 302 307 315 325 328 321 313 338 333 311 312 300 276 281 282 275 275 282 277 271 275 268 221 190 191
317 322 319 320 324 327 332 332 329 324 318 317 316 316 316 314 313 313 312 311 313 315 316 316 318 322 327 333 334 334 328 312 297 37 109 118 144 148 110 310 294 180 171 184 226 238 255 291 267 195 233 255 237 196 189 180 155 203 194 231 258 287 299 300 306 313 335 12 344 311 321 310 296 293 274 277 283 262 256 262 267 273 280 294 312 310 215 200
326 328 324 323 326 329 330 330 332 329 323 321 318 317 316 315 314 311 311 310 311 314 317 318 320 325 329 337 332 335 337 309 60 121 141 129 136 134 48 23 341 165 167 192 247 245 247 261 252 232 242 260 267 241 219 201 181 236 237 245 260 279 284 281 291 313 25 6 305 295 299 301 304 293 270 260 262 251 254 269 274 281 292 295 303 314 303 269
331 332 328 323 331 336 331 329 329 325 322 318 316 316 313 313 312 310 309 308 309 311 314 316 321 329 335 340 338 342 334 269 264 177 184 189 188 298 348 2 288 169 167 212 232 225 233 237 232 234 237 241 257 252 250 224 194 226 248 254 263 270 274 279 291 306 83 306 286 284 292 302 296 284 273 250 250 253 256 267 273 274 277 283 288 290 287 281
330 331 326 323 333 337 333 325 320 320 318 315 315 314 311 311 309 308 308 306 308 309 309 312 316 325 333 341 346 334 254 261 283 239 213 230 253 290 302 296 214 177 177 218 221 213 218 227 225 229 246 246 251 249 260 263 236 240 250 265 272 274 275 279 289 290 266 276 274 276 289 284 276 281 285 263 256 262 265 264 267 270 272 275 277 272 267 266
330 333 333 331 334 335 332 324 320 322 318 317 318 316 313 311 308 306 305 303 304 304 304 307 308 317 329 343 312 282 237 256 277 242 223 247 267 277 267 240 200 181 189 213 215 219 217 230 239 241 256 250 262 273 291 314 278 257 259 268 268 268 277 285 292 287 276 273 266 262 271 266 266 280 281 271 268 267 266 266 266 269 271 269 267 264 262 258
327 334 339 335 333 333 330 326 323 324 321 321 321 318 315 311 309 306 304 303 301 301 300 301 302 306 316 15 294 284 253 255 259 237 250 272 274 261 239 221 198 184 199 221 224 235 226 233 248 264 296 276 282 295 305 303 265 261 277 297 300 296 301 303 296 286 276 272 254 240 259 264 269 284 276 267 265 264 259 260 264 264 262 259 259 257 254 254
319 330 335 329 329 330 325 322 323 326 323 323 321 318 315 311 309 304 302 301 299 299 297 297 296 281 259 213 244 261 260 264 257 248 277 287 279 230 199 209 207 193 210 229 227 238 240 249 271 53 355 309 297 293 281 266 269 313 320 315 308 301 293 282 274 272 267 265 254 241 255 264 269 277 274 268 260 262 262 263 266 267 264 259 260 259 254 251
315 323 327 322 323 332 334 337 339 334 330 327 324 321 317 313 309 305 302 299 297 297 296 296 289 259 216 215 235 245 250 259 248 254 299 314 329 194 182 193 216 207 222 240 231 242 264 298 17 55 317 351 314 287 275 286 310 343 343 318 295 288 281 270 263 265 260 253 240 225 250 271 276 243 254 266 269 267 267 267 266 265 268 267 269 268 263 259
309 317 326 324 332 350 350 355 354 347 341 335 329 326 321 316 312 307 303 300 299 297 297 297 270 208 189 236 236 236 245 253 250 271 302 308 227 202 190 193 204 214 240 265 254 260 296 353 30 296 270 349 316 285 274 335 349 349 350 305 285 281 273 268 261 256 254 245 199 152 277 273 259 240 241 255 263 265 258 258 260 257 260 262 264 267 264 263
300 313 322 317 348 0 352 354 355 351 346 339 334 331 325 321 316 311 307 304 301 298 299 294 218 170 179 258 232 232 241 246 254 274 282 271 239 218 213 211 200 208 240 293 342 8 358 359 352 282 286 293 291 300 220 292 319 283 263 263 282 288 271 271 266 249 248 237 125 112 232 244 254 259 258 261 263 281 281 273 273 266 265 266 268 277 276 272
293 307 310 307 359 357 347 353 355 352 346 340 338 334 330 327 323 320 315 308 304 299 294 235 169 149 177 264 244 231 234 241 255 271 270 254 196 211 229 226 214 214 230 295 352 7 12 6 341 293 287 267 274 316 307 277 270 268 261 246 260 277 270 276 275 234 209 305 108 117 241 249 273 274 275 283 277 303 297 289 282 271 270 272 270 274 276 278
287 306 314 330 354 346 348 357 355 351 346 342 340 335 332 330 329 328 321 312 311 304 250 163 164 152 267 263 242 227 221 233 213 186 227 181 164 201 188 195 209 215 225 256 316 350 7 13 1 282 276 253 256 290 296 287 266 258 266 265 227 241 266 276 278 198 157 290 116 123 239 245 251 269 293 320 319 300 292 284 278 272 272 278 278 273 270 276
285 311 332 351 351 346 353 354 350 347 345 342 337 335 329 325 331 331 326 321 317 136 128 145 169 175 298 259 167 178 197 195 173 187 221 186 179 167 133 142 161 177 200 217 237 302 345 170 179 311 282 263 238 250 279 288 271 242 238 263 251 251 265 270 291 199 144 119 188 180 229 247 247 282 303 303 290 283 280 274 271 270 275 281 283 282 273 283
286 324 3 9 358 356 353 347 345 343 344 341 334 332 322 317 332 343 357 38 116 124 111 104 175 188 269 241 180 189 154 157 183 204 233 190 176 154 140 147 155 157 159 158 162 172 164 160 153 113 232 250 256 260 283 271 259 255 238 252 254 261 285 294 312 328 132 138 212 217 225 241 249 260 269 271 270 270 267 264 266 273 280 278 283 299 305 9
276 7 34 17 7 4 353 346 347 344 344 341 334 332 317 297 301 342 31 86 110 112 68 28 189 202 211 201 216 155 133 152 172 179 201 175 165 163 172 169 142 153 158 163 177 168 166 174 172 202 227 226 241 239 244 243 249 275 276 284 287 287 304 300 297 320 313 270 259 251 245 253 265 271 276 274 274 272 266 267 276 288 287 285 302 338 27 58
248 115 43 21 16 9 359 355 353 351 349 346 342 334 317 282 265 258 232 222 146 178 322 169 190 240 302 261 164 124 122 141 145 138 159 159 160 171 190 186 153 174 176 154 192 179 162 163 167 202 234 224 224 215 224 241 253 270 278 285 290 287 290 289 285 293 297 286 276 274 275 283 293 294 287 276 271 266 265 274 285 286 288 310 356 37 61 67
256 75 32 19 16 9 2 357 356 357 354 353 349 331 313 295 277 247 216 232 239 263 291 251 221 256 293 299 120 124 135 162 156 149 164 156 154 166 182 191 168 203 224 174 179 169 152 177 195 198 219 234 240 235 239 248 256 269 276 275 277 279 279 287 288 283 286 285 279 288 296 299 297 289 278 270 268 268 271 274 270 278 312 25 52 64 67 66
286 4 358 357 358 356 351 353 356 0 3 358 346 324 340 25 319 350 316 260 246 256 270 265 257 264 275 278 126 128 79 204 193 152 166 163 156 169 177 186 173 188 228 208 160 87 142 200 220 214 223 237 246 256 265 270 277 283 283 280 278 277 279 281 281 281 285 284 285 297 293 293 292 281 274 273 275 271 267 262 264 299 47 53 58 65 64 59
230 300 306 321 337 338 335 347 351 359 17 6 347 346 69 37 317 129 297 281 265 262 262 260 259 258 263 262 121 121 52 241 211 147 166 169 165 197 169 173 195 196 219 204 153 82 189 227 234 227 228 241 250 259 268 270 274 279 279 283 280 277 282 275 268 274 292 92 300 305 295 291 285 275 273 275 273 262 257 265 30 64 66 51 52 60 58 52
240 275 288 306 326 326 325 336 344 0 26 23 19 38 70 26 325 86 235 274 279 259 247 249 251 249 249 213 110 116 220 238 238 175 172 170 163 228 183 184 217 224 225 199 185 195 201 227 233 223 225 239 249 253 259 263 257 250 257 269 270 272 275 268 277 312 354 343 300 300 296 289 280 274 275 270 258 269 321 71 70 72 73 63 61 59 54 53
233 250 268 288 302 313 321 326 334 353 20 47 56 51 60 227 237 128 233 271 271 253 243 260 265 278 258 158 111 164 220 228 250 169 173 179 165 181 210 213 218 236 238 213 211 224 234 255 249 204 219 235 250 258 259 262 262 249 242 247 260 267 266 272 324 345 345 324 303 308 299 271 268 273 281 267 249 18 55 75 70 63 69 68 64 59 55 55
237 242 248 267 279 297 318 318 323 309 213 124 69 24 17 354 128 131 288 272 250 260 347 44 83 78 106 112 118 176 229 201 62 118 167 219 214 148 210 224 215 233 238 230 231 236 251 264 244 205 231 243 251 259 258 257 276 269 251 258 281 295 301 319 350 1 354 314 303 23 353 268 284 313 312 288 302 53 61 70 64 56 57 56 56 54 53 56
241 241 240 252 267 280 304 312 235 221 234 142 28 348 344 351 67 137 326 279 250 223 92 168 135 166 160 145 148 136 267 182 70 107 155 303 309 203 269 196 179 247 250 256 257 255 257 250 91 110 258 264 261 265 264 257 269 268 266 332 347 6 12 5 6 10 337 267 273 8 345 263 278 293 274 271 309 79 70 68 68 64 57 55 56 51 47 50
242 238 240 248 257 258 263 322 194 264 249 146 297 329 336 338 127 208 238 274 264 154 116 302 320 185 151 145 181 172 184 153 107 98 146 268 240 103 273 175 137 243 221 40 3 288 221 184 90 65 240 248 250 259 259 231 234 252 284 4 13 27 10 346 350 279 246 273 281 251 228 256 270 243 249 247 124 94 83 75 74 72 69 68 64 54 50 43
247 240 242 246 248 237 221 225 313 292 140 98 326 323 345 341 208 252 280 280 279 124 123 335 96 178 110 130 222 236 122 147 143 92 32 305 220 110 219 237 284 267 149 141 187 268 212 182 170 159 179 213 224 243 269 227 216 227 234 13 16 14 301 278 257 253 266 301 284 228 197 242 274 247 248 225 123 103 98 93 80 74 74 73 70 61 53 44
252 243 241 239 236 226 219 224 236 215 217 341 307 315 351 345 221 298 249 259 284 98 71 101 126 163 139 148 227 222 170 173 165 92 92 233 214 100 220 234 309 306 182 179 209 243 293 140 176 165 185 218 213 218 317 314 203 207 236 312 313 256 235 236 240 254 292 281 256 231 192 203 287 269 262 123 117 120 111 102 88 80 76 71 72 64 54 47
250 242 236 226 215 209 210 224 232 231 242 241 242 305 353 4 260 213 205 230 347 70 104 132 97 148 164 178 197 194 191 158 104 129 175 190 151 213 251 143 344 319 263 235 250 251 199 73 18 200 218 221 155 131 35 37 159 191 289 329 313 269 228 209 216 201 310 267 254 247 204 185 277 292 335 73 128 144 133 129 118 102 91 81 72 61 57 54
236 227 221 210 199 194 190 215 233 229 224 215 217 311 342 197 209 211 212 226 1 43 142 148 77 159 192 204 178 188 189 139 131 154 184 155 146 196 254 164 57 340 308 288 271 258 203 146 234 213 236 215 128 115 22 51 76 91 32 344 335 306 231 125 108 114 237 248 273 305 197 176 215 283 57 70 116 145 146 152 140 123 111 95 81 67 57 54
217 213 208 203 202 199 189 189 219 211 204 196 181 47 59 217 226 214 195 58 114 215 156 140 171 192 198 190 68 192 173 146 162 189 196 174 177 194 202 199 159 138 258 241 281 274 208 208 207 184 286 204 150 136 349 50 91 122 159 144 9 316 322 170 237 179 214 240 246 23 52 153 225 275 286 69 77 100 119 131 133 127 121 106 91 81 64 49
208 209 204 204 206 200 195 197 190 184 180 168 133 58 148 217 224 187 169 194 226 146 83 57 9 208 131 62 64 97 26 157 165 190 219 171 195 218 204 206 204 206 239 241 357 315 274 250 187 150 332 196 167 162 188 231 174 165 174 161 167 247 289 264 257 243 243 260 246 51 40 6 227 288 298 89 79 60 78 93 103 108 108 101 94 86 73 60
202 203 200 204 205 200 197 192 174 171 167 149 115 95 206 221 219 155 184 205 207 122 101 54 24 239 226 227 212 153 159 252 159 157 199 159 196 235 209 210 214 212 186 54 318 227 252 301 183 169 212 169 178 200 190 136 163 192 195 156 164 200 242 255 262 263 268 283 271 286 348 228 188 262 25 86 84 69 74 81 84 87 89 91 89 74 61 54
202 203 203 205 208 209 202 184 168 166 157 136 129 175 210 219 185 152 202 208 180 152 113 61 108 219 236 226 226 191 154 186 163 151 201 203 217 229 208 211 201 179 122 165 249 183 220 261 182 148 156 161 180 228 201 99 147 228 75 89 179 213 206 252 269 256 279 306 279 266 258 243 174 111 94 89 84 81 81 83 86 85 83 81 75 66 56 47
204 207 212 211 214 215 205 191 180 172 157 137 172 212 217 223 184 168 196 227 182 137 122 140 176 209 243 240 240 230 153 145 167 133 213 216 239 239 233 251 182 169 161 168 233 230 225 252 116 75 7 182 183 277 229 196 186 57 60 155 242 237 155 220 281 269 138 272 259 243 263 283 308 107 107 99 91 88 84 81 85 83 79 76 66 63 60 53
210 229 237 226 221 214 203 198 191 180 169 160 203 224 219 220 237 225 163 86 351 87 125 196 193 185 228 234 214 194 128 61 154 149 242 213 232 240 226 251 156 172 188 176 250 276 239 274 225 177 231 245 301 3 336 310 94 117 197 218 267 334 62 143 261 292 239 257 253 245 270 279 269 254 127 121 110 98 89 81 82 76 69 68 63 58 49 40
233 301 278 248 230 212 197 198 189 173 174 204 217 229 217 178 233 250 136 105 82 78 133 209 204 92 266 242 217 163 126 80 168 163 228 219 211 189 187 252 42 57 1 78 157 269 119 296 269 218 209 234 13 18 333 332 55 126 189 177 96 321 298 197 194 215 236 256 258 246 264 267 252 275 160 154 138 116 109 96 82 74 70 70 66 56 37 22
125 17 290 254 225 207 192 188 180 169 199 217 222 229 212 205 243 262 64 84 57 80 130 221 195 6 325 296 295 257 159 184 196 184 189 198 217 153 92 24 46 41 22 52 91 297 100 213 280 3 50 71 56 75 198 271 2 87 112 322 139 178 213 209 207 223 231 255 264 253 262 264 254 329 333 140 129 125 126 115 102 102 108 105 94 78 34 5
144 209 277 180 196 195 182 172 174 198 218 215 222 222 177 222 253 268 75 106 99 131 178 193 167 224 272 274 283 281 207 205 224 222 217 223 262 39 50 26 51 52 22 50 69 348 5 236 248 352 13 32 108 173 180 236 306 87 48 271 233 227 256 297 271 242 228 253 265 258 258 253 255 345 21 83 101 113 125 128 137 150 143 139 156 176 216 239
173 258 183 152 181 182 164 160 195 212 222 226 223 217 200 159 185 271 260 165 175 229 202 198 202 212 231 245 254 251 238 241 234 226 232 237 249 314 30 2 22 33 14 56 62 1 334 263 259 295 302 246 225 179 119 142 147 113 88 243 258 291 345 295 267 236 217 239 249 260 260 246 242 315 46 85 94 104 123 140 152 167 176 186 202 207 212 215
203 232 137 150 176 174 159 176 211 194 224 232 218 206 190 155 152 217 220 195 203 223 211 211 223 224 226 237 248 247 248 257 228 223 236 234 245 348 343 321 10 24 29 84 72 349 94 93 278 272 268 263 274 293 70 139 162 149 184 211 239 260 175 255 262 259 272 277 287 271 261 229 215 278 72 115 137 142 157 167 167 182 191 193 202 204 204 210
209 191 133 152 175 178 172 201 208 201 231 232 228 218 198 188 205 216 209 197 202 215 213 213 219 226 231 234 243 247 246 230 212 229 244 251 336 67 37 328 16 22 14 94 119 7 78 91 238 263 278 289 286 297 36 36 63 117 243 97 107 157 193 238 243 227 246 268 276 265 259 257 241 257 195 150 158 162 175 175 171 181 183 185 196 195 192 198
208 176 117 164 182 188 195 205 199 209 222 220 226 225 218 224 225 223 220 207 196 202 217 223 221 223 229 233 239 238 235 233 235 240 242 236 118 73 37 1 17 29 15 23 226 229 237 147 128 243 296 305 289 284 30 19 37 61 332 324 306 259 253 242 224 204 213 229 240 245 257 271 208 209 214 193 175 173 180 177 175 174 172 180 186 181 183 185
209 174 81 172 192 202 221 228 212 220 216 215 221 221 223 231 221 221 235 226 207 204 216 225 225 225 228 238 254 247 240 248 252 261 308 144 115 67 27 10 29 67 59 7 339 176 212 219 143 179 244 251 261 260 170 89 59 56 254 267 277 259 251 266 275 255 250 262 297 268 265 271 227 214 215 198 188 195 192 187 186 175 165 168 170 177 182 178
208 197 156 151 200 225 246 267 266 256 218 213 221 220 221 228 219 201 211 232 234 224 227 239 225 235 243 232 239 250 246 237 224 234 218 135 121 83 39 41 56 76 94 12 359 37 129 253 199 207 232 242 256 270 277 299 298 280 276 276 271 261 253 259 256 253 273 321 290 258 259 275 275 269 262 206 188 214 215 198 185 164 150 157 168 175 171 172
233 229 187 160 187 221 230 236 227 233 249 232 220 212 217 226 230 195 186 214 239 227 228 235 214 204 211 212 222 239 239 230 226 230 222 184 132 105 95 82 78 89 133 75 4 86 135 245 224 216 234 244 253 269 283 291 280 270 275 273 266 260 245 234 240 255 306 308 268 265 275 281 278 283 293 292 257 254 248 204 172 157 156 160 157 153 170 215
240 281 220 195 207 202 207 218 212 217 241 256 250 233 223 222 222 211 189 183 218 232 217 214 216 220 222 218 205 213 234 236 229 219 195 170 129 115 114 89 104 147 153 102 26 109 136 242 244 236 249 254 257 262 266 273 277 276 273 271 270 265 252 244 243 238 239 252 260 273 281 277 277 283 290 297 303 288 254 148 134 130 138 143 143 173 231 248
236 282 284 296 292 202 203 202 195 210 228 238 249 249 239 230 226 219 173 156 181 225 209 212 221 218 220 213 175 180 222 221 215 201 119 99 87 108 132 108 109 146 126 91 323 158 164 240 244 246 266 265 263 264 263 267 274 272 269 268 267 264 260 261 259 241 238 252 262 271 274 274 280 286 288 311 29 69 82 97 111 128 147 158 172 204 234 250
272 315 295 312 321 264 223 196 180 199 223 227 234 238 236 240 238 227 136 155 189 198 208 219 210 142 123 144 155 192 201 137 145 148 103 103 113 118 166 221 135 104 78 81 295 282 252 218 159 99 294 274 265 266 264 258 260 266 270 267 263 265 270 271 265 258 256 261 263 267 271 273 284 338 72 98 79 83 92 111 137 153 151 140 146 221 251 263
295 345 315 311 274 167 133 208 182 188 214 219 225 229 217 227 238 240 9 124 163 178 195 183 151 103 72 124 161 212 169 132 141 149 123 131 170 140 136 136 119 126 141 127 326 301 266 253 326 56 267 267 273 290 287 273 281 278 268 261 258 261 265 262 260 261 260 263 266 267 267 263 256 88 130 149 103 88 95 88 85 98 101 101 103 279 273 268
161 266 240 269 292 187 159 188 195 197 213 215 217 222 219 229 238 233 232 41 56 50 78 127 141 137 132 160 167 148 118 118 118 109 106 117 133 130 179 172 138 149 159 154 141 172 179 184 297 262 247 267 278 307 77 23 287 268 256 254 253 255 257 259 261 258 254 257 261 260 258 237 183 169 172 154 89 52 50 51 45 53 91 138 200 247 267 269